{"data":{"norad_id":53280,"epoch":"2026-09-19T04:36:54.986112Z","epoch_age_seconds":188381,"freshness":"STALE","line1":"1 53280U 22086AQ  26262.19230308  .00008766  00000+0  18211-3 0  9992","line2":"2 53280  53.1629 337.1705 0001527  72.3808 287.7367 15.46517838231223","mean_motion":15.46517838,"eccentricity":0.0001527,"inclination_deg":53.1629,"raan_deg":337.1705,"arg_perigee_deg":72.3808,"mean_anomaly_deg":287.7367,"bstar":0.00018211,"rev_number":23122,"period_min":93.112408057462,"perigee_km":425.88272113271,"apogee_km":427.9609861066,"semimajor_km":6805.0588536197,"source":"CELESTRAK","updated_at":"2026-09-20T09:00:40.219613Z"}}